Printer-friendly version
Follow the MPC on Twitter Follow the MPC on Facebook The MPC blog
Minor Planet Center

MPEC 2010-P15 : 2010 OL101

The following Minor Planet Electronic Circular may be linked-to from your own Web pages, but must not otherwise be redistributed electronically.

A form allowing access to any MPEC is at the bottom of this page.


Read MPEC 2010-P14 Read MPEC 2010-P16


M.P.E.C. 2010-P15                                Issued 2010 Aug. 4, 13:32 UT

     The Minor Planet Electronic Circulars contain information on unusual
         minor planets and routine data on comets.  They are published
   on behalf of Commission 20 of the International Astronomical Union by the
          Minor Planet Center, Smithsonian Astrophysical Observatory,
                          Cambridge, MA 02138, U.S.A.

             Prepared using the Tamkin Foundation Computer Network

                              MPC@CFA.HARVARD.EDU
       URL http://www.minorplanetcenter.org/iau/mpc.html  ISSN 1523-6714

                                  2010 OL101

Observations:
     K10OA1L* S2010 07 27.58368 16 53 15.76 +58 49 42.0          22   R EP015C51
     K10OA1L  s2010 07 27.58368 1 - 2949.0246 -  897.1407 + 6170.8122   EP015C51
     K10OA1L  S2010 07 27.71599 16 54 08.88 +58 46 01.9                 EP015C51
     K10OA1L  s2010 07 27.71599 1 - 2946.7577 -  903.4078 + 6170.7400   EP015C51
     K10OA1L  S2010 07 27.98059 16 55 54.71 +58 38 31.8                 EP015C51
     K10OA1L  s2010 07 27.98059 1 - 2940.9464 -  916.0631 + 6171.7274   EP015C51
     K10OA1L  S2010 07 28.11290 16 56 47.54 +58 34 42.9                 EP015C51
     K10OA1L  s2010 07 28.11290 1 - 2938.9642 -  922.9156 + 6171.4489   EP015C51
     K10OA1L  S2010 07 28.24520 16 57 40.88 +58 30 51.8                 EP015C51
     K10OA1L  s2010 07 28.24520 1 - 2936.5996 -  928.9473 + 6171.7016   EP015C51
     K10OA1L  S2010 07 28.37750 16 58 33.84 +58 26 57.8                 EP015C51
     K10OA1L  s2010 07 28.37750 1 - 2933.6416 -  935.0504 + 6172.2770   EP015C51
     K10OA1L KC2010 08 01.10412117 23 29.47 +56 20 00.5          21.0 V EP015H21
     K10OA1L KC2010 08 01.12454617 23 37.35 +56 19 12.8          21.1 V EP015H21
     K10OA1L KC2010 08 01.14968717 23 47.16 +56 18 13.8          21.0 V EP015H21
     K10OA1L  C2010 08 03.10140817 36 47.36 +54 56 48.6          20.8 V EP015H21
     K10OA1L  C2010 08 03.12063617 36 54.88 +54 55 56.8          20.5 V EP015H21
     K10OA1L  C2010 08 03.13865017 37 01.81 +54 55 08.6          20.8 V EP015H21
     K10OA1L  C2010 08 03.15556817 37 08.29 +54 54 22.8          20.7 V EP015H21
     K10OA1L  C2010 08 03.22957 17 37 37.53 +54 51 07.0          20.5 V EP015691
     K10OA1L  C2010 08 03.23264 17 37 38.72 +54 50 58.6          20.3 V EP015691
     K10OA1L  C2010 08 03.23622 17 37 40.08 +54 50 48.8          20.6 V EP015691
     K10OA1L KC2010 08 04.17991 17 43 54.27 +54 07 10.8          20.2 C EP015H36
     K10OA1L KC2010 08 04.18709 17 43 56.99 +54 06 49.1          19.9 C EP015H36
     K10OA1L KC2010 08 04.19305 17 43 59.31 +54 06 32.0          20.1 C EP015H36
     K10OA1L  C2010 08 04.21490 17 44 08.18 +54 05 34.2          20.0 V EP015691
     K10OA1L  C2010 08 04.21782 17 44 09.30 +54 05 24.7          20.0 V EP015691
     K10OA1L  C2010 08 04.22142 17 44 10.60 +54 05 14.8          20.0 V EP015691

Observer details:
691 Steward Observatory, Kitt Peak.  Observer R. S. McMillan.  0.9-m f/3
    reflector + CCD.
C51 WISE.  Measurers A. K. Mainzer, E. L. Wright, J. M. Bauer, T. Grav,
    J. W. Dailey, J. R. Masiero, R. M. Cutri, R. S. McMillan,
    R. G. Walker. (http://wise.ssl.berkeley.edu/mission_sci.html).
H21 Astronomical Research Observatory, Westfield.  Observer R. Holmes.
    Measurers R. Holmes, H. Devore, S. Foglia.  0.81-m f/4.0 astrograph + CCD.
H36 Sandlot Observatory, Scranton.  Observer G. Hug.  0.56-m reflector + CCD.

Orbital elements:
2010 OL101                                               Earth MOID = 0.3122 AU
Epoch 2010 July 23.0 TT = JDT 2455400.5                 MPC
M   3.41631              (2000.0)            P               Q
n   0.21301001     Peri.  103.61588     +0.08442842     +0.99351504
a   2.7767453      Node   170.22042     -0.99548641     +0.08077724
e   0.6174818      Incl.   26.63781     +0.04334341     -0.08001811
P   4.63           H   20.2           G   0.15           U   9
Residuals in seconds of arc
100727 C51  0.6-  0.7-    100801 H21  0.3+  0.3+    100804 H36  0.1+  0.2+
100727 C51  0.8+  0.6+    100803 H21  0.9-  0.5+    100804 H36  0.2-  0.8-
100727 C51  0.1-  0.4+    100803 H21  0.2+  0.0     100804 H36  0.2+  0.7-
100728 C51  1.4-  0.1+    100803 H21  0.3+  0.1+    100804 691  0.1+  0.7+
100728 C51  1.0+  0.0     100803 H21  0.0   0.1-    100804 691  0.2+  0.4-
100728 C51  0.4+  0.5-    100803 691  0.0   0.0     100804 691  0.4-  0.1+
100801 H21  0.0   0.0     100803 691  0.1+  0.1-
100801 H21  0.2-  0.1+    100803 691  0.0   0.1-

Ephemeris:
2010 OL101               a,e,i = 2.78, 0.62, 27                  q = 1.0622
Date    TT    R. A. (2000) Decl.     Delta      r     Elong.  Phase     V
2010 08 02    17 29.46   +55 44.0    0.376    1.115    95.4    65.0    20.6
2010 08 12    18 33.40   +46 21.5    0.339    1.160   107.3    56.5    20.2
2010 08 22    19 28.15   +32 08.5    0.324    1.216   122.4    44.6    19.9
2010 09 01    20 11.87   +15 48.2    0.345    1.280   136.1    33.2    19.8
2010 09 11    20 46.30   +01 41.7    0.406    1.350   142.1    27.3    20.1
2010 09 21    21 14.14   -08 11.5    0.501    1.425   140.1    26.9    20.7
2010 10 01    21 37.51   -14 23.2    0.621    1.503   134.4    28.4    21.3
2010 10 11    21 57.97   -18 00.0    0.760    1.582   127.8    29.9    21.9

Sonia Keys                   (C) Copyright 2010 MPC           M.P.E.C. 2010-P15

Read MPEC 2010-P14 Read MPEC 2010-P16


MPEC number:

Enter an MPEC number in one of the following forms:

  • 1997-B01 (the full form)
  • J97B01 (the packed version of the full form)
  • B01 (the abbreviated form)

Valid HTML 4.01!